Weather History for Newport Airport, OR

Change the Weather History Date:

Tuesday, May 28, 2013

  Actual Average Record
Temperature  
Mean Temperature 54 °F -  
Max Temperature 57 °F 57 °F 71 °F (1998)
Min Temperature 50 °F 48 °F 39 °F (2007)
Degree Days  
Heating Degree Days 12    
Growing Degree Days 4 (Base 50)    
Moisture  
Dew Point 50 °F    
Average Humidity 90    
Maximum Humidity 100    
Minimum Humidity 72    
Precipitation  
Precipitation 0.19 in - - ()
Sea Level Pressure  
Sea Level Pressure 29.93 in    
Wind  
Wind Speed 11 mph (SSW)    
Max Wind Speed 17 mph    
Max Gust Speed 23 mph    
Visibility 8 miles    
Events Rain    
Averages and records for this station are not official NWS values.
T = Trace of Precipitation, MM = Missing Value Source: NWS Daily Summary

Daily Weather History Graph

Daily Weather History Graph

Search for Another Location

Airport:

Trip Planner

Search our weather history database for the weather conditions in past years. The results will help you decide how hot, cold, wet, or windy it might be!

Date:

Astronomy

May. 28, 2013 Rise Set
Actual Time 5:36 AM PDT 8:51 PM PDT
Civil Twilight 5:01 AM PDT 9:26 PM PDT
Nautical Twilight 4:15 AM PDT 10:12 PM PDT
Astronomical Twilight 3:18 AM PDT 11:09 PM PDT
Moon No Moon Rise 9:35 AM PDT (5/28)
Length of Visible Light 16h 25m
Length of Day
15h 14m
Waning Gibbous, 82% of the Moon is Illuminated
May 28
Waning Gibbous
May 31
Last Quarter
Jun 8
New
Jun 16
First Quarter
Jun 23
Full

Hourly Weather History & Observations

Time (PDT) Temp. Dew Point Humidity Pressure Visibility Wind Dir Wind Speed Gust Speed Precip Events Conditions
12:15 AM 51.8 °F 51.8 °F 100% 29.90 in 10.0 mi South 12.7 mph - N/A   Overcast
12:35 AM 51.8 °F 51.8 °F 100% 29.90 in 7.0 mi SSW 11.5 mph 19.6 mph N/A   Overcast
12:55 AM 51.8 °F 51.8 °F 100% 29.91 in 7.0 mi SW 12.7 mph - N/A   Drizzle
1:15 AM 51.8 °F 50.0 °F 94% 29.91 in 7.0 mi SW 11.5 mph - N/A   Overcast
1:35 AM 51.8 °F 50.0 °F 94% 29.91 in 10.0 mi SSW 10.4 mph - N/A   Overcast
1:55 AM 51.8 °F 50.0 °F 94% 29.92 in 7.0 mi SSW 9.2 mph - N/A   Overcast
2:15 AM 51.8 °F 50.0 °F 94% 29.92 in 5.0 mi SSW 9.2 mph - N/A   Light Drizzle
2:35 AM 51.8 °F 50.0 °F 94% 29.91 in 7.0 mi South 8.1 mph - N/A   Overcast
2:55 AM 51.8 °F 50.0 °F 94% 29.91 in 10.0 mi SSW 10.4 mph - N/A   Overcast
3:15 AM 51.8 °F 50.0 °F 94% 29.91 in 10.0 mi South 9.2 mph - N/A   Overcast
3:35 AM 51.8 °F 50.0 °F 94% 29.91 in 10.0 mi South 8.1 mph - N/A   Overcast
3:55 AM 51.8 °F 50.0 °F 94% 29.91 in 10.0 mi South 9.2 mph - N/A   Overcast
4:15 AM 51.8 °F 50.0 °F 94% - 2.0 mi South 15.0 mph 19.6 mph N/A Rain Rain
4:35 AM 51.8 °F 51.8 °F 100% 29.92 in 2.5 mi SSW 13.8 mph - N/A   Drizzle
4:55 AM 51.8 °F 51.8 °F 100% 29.93 in 7.0 mi SSW 9.2 mph - N/A   Overcast
5:15 AM 51.8 °F 51.8 °F 100% 29.93 in 4.0 mi SSW 5.8 mph - N/A   Drizzle
5:35 AM 51.8 °F 50.0 °F 94% 29.93 in 10.0 mi SW 5.8 mph - N/A   Overcast
5:55 AM 51.8 °F 50.0 °F 94% 29.93 in 2.0 mi South 5.8 mph - 0.01 in Rain Rain
6:15 AM 51.8 °F 50.0 °F 94% 29.93 in 2.5 mi SSW 6.9 mph - 0.02 in Rain Heavy Rain
6:35 AM 50.0 °F 50.0 °F 100% 29.94 in 4.0 mi South 8.1 mph - 0.02 in   Drizzle
6:55 AM 50.0 °F 50.0 °F 100% 29.94 in 5.0 mi South 8.1 mph - 0.02 in   Drizzle
7:15 AM 50.0 °F 50.0 °F 100% 29.95 in 1.8 mi SW 9.2 mph - 0.01 in Rain Heavy Rain
7:35 AM 50.0 °F 50.0 °F 100% 29.96 in 3.0 mi South 5.8 mph - 0.01 in   Light Drizzle
7:55 AM 50.0 °F 50.0 °F 100% 29.96 in 7.0 mi South 6.9 mph - 0.01 in   Overcast
8:15 AM 50.0 °F 50.0 °F 100% 29.96 in 5.0 mi South 4.6 mph - N/A   Light Drizzle
8:35 AM 50.0 °F 50.0 °F 100% 29.96 in 2.5 mi SW 13.8 mph 19.6 mph N/A Rain Light Rain
8:55 AM 50.0 °F 50.0 °F 100% 29.96 in 3.0 mi South 6.9 mph - N/A   Overcast
9:15 AM 51.8 °F 51.8 °F 100% 29.96 in 10.0 mi SW 8.1 mph - N/A   Overcast
9:35 AM 51.8 °F 50.0 °F 94% 29.97 in 10.0 mi SSW 12.7 mph - N/A   Overcast
9:55 AM 53.6 °F 51.8 °F 94% 29.97 in 10.0 mi SSW 11.5 mph - N/A   Overcast
10:15 AM 53.6 °F 51.8 °F 94% 29.98 in 10.0 mi SSW 12.7 mph 16.1 mph N/A   Overcast
10:35 AM 51.8 °F 50.0 °F 94% 29.98 in 2.0 mi SSW 11.5 mph - 0.01 in Rain Light Rain
10:55 AM 53.6 °F 51.8 °F 94% 29.98 in 10.0 mi SW 10.4 mph - 0.01 in   Overcast
11:15 AM 53.6 °F 51.8 °F 94% 29.98 in 10.0 mi SW 9.2 mph - N/A   Overcast
11:35 AM 53.6 °F 50.0 °F 88% 29.99 in 10.0 mi SSW 11.5 mph - N/A   Overcast
11:55 AM 53.6 °F 51.8 °F 94% 30.00 in 10.0 mi SSW 11.5 mph - N/A   Overcast
12:15 PM 53.6 °F 50.0 °F 88% 30.00 in 10.0 mi SSW 16.1 mph - N/A   Overcast
12:35 PM 55.4 °F 50.0 °F 82% 30.01 in 10.0 mi SSW 13.8 mph 19.6 mph N/A   Overcast
12:55 PM 55.4 °F 50.0 °F 82% 30.01 in 10.0 mi SSW 11.5 mph - N/A   Overcast
1:15 PM 55.4 °F 51.8 °F 88% 30.01 in 10.0 mi SSW 12.7 mph - N/A   Overcast
1:35 PM 55.4 °F 50.0 °F 82% 30.00 in 10.0 mi South 13.8 mph - N/A   Overcast
1:55 PM 55.4 °F 51.8 °F 88% 30.01 in 10.0 mi SSW 15.0 mph - N/A   Overcast
2:15 PM 55.4 °F 51.8 °F 88% 30.01 in 10.0 mi SSW 16.1 mph 21.9 mph N/A   Overcast
2:35 PM 57.2 °F 50.0 °F 77% 30.00 in 10.0 mi South 15.0 mph - N/A   Overcast
2:55 PM 57.2 °F 48.2 °F 72% 30.00 in 10.0 mi SSW 15.0 mph 19.6 mph N/A   Overcast
3:15 PM 55.4 °F 50.0 °F 82% 30.00 in 10.0 mi SSW 15.0 mph 19.6 mph N/A   Overcast
3:35 PM 57.2 °F 50.0 °F 77% 30.00 in 10.0 mi SSW 15.0 mph 19.6 mph N/A   Overcast
3:55 PM 55.4 °F 50.0 °F 82% 29.99 in 10.0 mi SSW 12.7 mph - N/A   Overcast
4:15 PM 55.4 °F 50.0 °F 82% 29.99 in 10.0 mi South 15.0 mph - N/A   Overcast
4:35 PM 55.4 °F 50.0 °F 82% 29.99 in 10.0 mi South 15.0 mph - N/A   Overcast
4:55 PM 55.4 °F 50.0 °F 82% 29.98 in 10.0 mi SSW 13.8 mph 20.7 mph N/A   Overcast
5:15 PM 55.4 °F 50.0 °F 82% 29.97 in 10.0 mi SSW 11.5 mph 20.7 mph N/A   Mostly Cloudy
5:35 PM 55.4 °F 50.0 °F 82% 29.96 in 10.0 mi SSW 13.8 mph - N/A   Overcast
5:55 PM 55.4 °F 50.0 °F 82% 29.95 in 10.0 mi South 10.4 mph - N/A   Overcast
6:15 PM 55.4 °F 50.0 °F 82% 29.94 in 10.0 mi South 11.5 mph - N/A   Overcast
6:35 PM 55.4 °F 50.0 °F 82% 29.91 in 10.0 mi South 10.4 mph - N/A   Scattered Clouds
6:55 PM 55.4 °F 46.4 °F 72% 29.90 in 10.0 mi South 8.1 mph - N/A   Clear
7:15 PM 53.6 °F 46.4 °F 77% 29.89 in 10.0 mi South 8.1 mph - N/A   Mostly Cloudy
7:35 PM 53.6 °F 46.4 °F 77% 29.87 in 10.0 mi South 6.9 mph - N/A   Overcast
7:55 PM 53.6 °F 46.4 °F 77% 29.86 in 10.0 mi South 6.9 mph - N/A   Overcast
8:15 PM 53.6 °F 46.4 °F 77% 29.85 in 10.0 mi South 10.4 mph 17.3 mph N/A   Overcast
8:35 PM 53.6 °F 46.4 °F 77% 29.85 in 10.0 mi SSW 11.5 mph - N/A   Overcast
8:55 PM 53.6 °F 48.2 °F 82% 29.84 in 10.0 mi SSE 6.9 mph - N/A   Drizzle
9:15 PM 51.8 °F 48.2 °F 88% 29.83 in 10.0 mi ESE 3.5 mph - N/A Rain Rain
9:35 PM 51.8 °F 48.2 °F 88% 29.82 in 7.0 mi Calm Calm - 0.01 in Rain Light Rain
9:55 PM 51.8 °F 48.2 °F 88% 29.83 in 10.0 mi Calm Calm - 0.01 in Rain Rain
10:15 PM 51.8 °F 50.0 °F 94% 29.83 in 7.0 mi South 6.9 mph - 0.02 in Rain Rain
10:35 PM 51.8 °F 50.0 °F 94% 29.82 in 5.0 mi SSW 17.3 mph 23.0 mph 0.06 in Rain Light Rain
10:55 PM 50.0 °F 50.0 °F 100% 29.81 in 4.0 mi South 10.4 mph 18.4 mph 0.09 in Rain Light Rain
11:15 PM 50.0 °F 48.2 °F 94% 29.80 in 5.0 mi SSE 8.1 mph 19.6 mph 0.02 in Rain Rain
11:35 PM 50.0 °F 48.2 °F 94% 29.78 in 7.0 mi SSE 9.2 mph 16.1 mph 0.03 in Rain Rain
11:55 PM 50.0 °F 48.2 °F 94% 29.76 in 5.0 mi SE 9.2 mph - 0.04 in   Drizzle